Preview of NWS' New Version of Forecast
This preview is not operational and should not be used for support decisions.

Regional Weather Roundup (RWR)

Issued by National Weather Service (NWS)

                            
000
ASUS45 KBOI 181410
RWRID 

IDAHO REGIONAL WEATHER ROUNDUP
NATIONAL WEATHER SERVICE BOISE ID
800 AM MDT THU APR 18 2019

NOTE: "FAIR" INDICATES FEW OR NO CLOUDS BELOW 12000 FEET
WITH NO SIGNIFICANT WEATHER AND/OR OBSTRUCTIONS TO VISIBILITY

IDZ012-014-181500-
SOUTHWEST IDAHO

  
CITY           SKY/WX    TMP DP  RH WIND       PRES   REMARKS
BOISE          SUNNY     44  36  73 E7        30.33R                  
CALDWELL       CLEAR     42  38  85 CALM      30.34R                  
MOUNTAIN HOME  SUNNY     33  33 100 NW3       30.33R                  
$$

IDZ016-017-181500-
SOUTHCENTRAL IDAHO

  
CITY           SKY/WX    TMP DP  RH WIND       PRES   REMARKS
BURLEY         SUNNY     42  32  67 SW5       30.33R                  
JEROME         SUNNY     44  36  73 CALM      30.34R                  
TWIN FALLS     SUNNY     46  37  71 S12       30.34R                  
$$

IDZ019>023-181500-
SOUTHEAST IDAHO

  
CITY           SKY/WX    TMP DP  RH WIND       PRES   REMARKS
IDAHO FALLS    SUNNY     40  35  83 S7        30.37R                  
POCATELLO      SUNNY     44  36  73 SW7       30.36R                  
REXBURG        SUNNY     40  35  83 S5        30.35R                  
$$

IDZ006-010-011-018-031-032-181500-
CENTRAL IDAHO MOUNTAINS

  
CITY           SKY/WX    TMP DP  RH WIND       PRES   REMARKS
MCCALL         SUNNY     28  25  88 CALM      30.34S                  
HAILEY         MOSUNNY   37  25  60 NW9       30.37R WCI  31          
STANLEY          N/A     23  19  85 CALM      30.42R                  
SALMON         SUNNY     39  33  79 CALM      30.40R                  
CHALLIS        SUNNY     35  27  72 CALM      30.38R                  
$$

IDZ002-004-006-007-026-181500-
NORTHERN IDAHO

  
CITY           SKY/WX    TMP DP  RH WIND       PRES   REMARKS
LEWISTON       CLEAR     47  40  76 E7        30.30S                  
LOWELL           N/A     40  38  93 CALM      30.40S                  
COEUR D'ALENE  MOSUNNY   44  39  82 S8        30.27R                  
MULLAN PASS    CLOUDY    35  30  82 SW8       30.28R WCI  29          
$$